STARLINK-5680, 55455

Orbit data source: Space-Track

STARLINK-5680, 55455 is a payload satellite owned by SpaceX/Seattle (US) in LEO that was launched on Thu, 02 Feb 2023 UTC via an FALCON 9 launch vehicle from the Air Force Eastern Test Range (AFETR). Payload-class satellites include a variety of spacecraft equipped with specific instruments for various scientific and technological missions. These include communications satellites like Starlink; space stations such as the ISS; scientific satellites like the Hubble; Earth observation satellites from companies like Planet Labs, Umbra, and HawkEye 360; GPS; miniature CubeSats for education and research; and military/defense satellites.

Loading next visibility...
Identifier
55455, 2023-015G
Orbit
LEO
Country
Flag of USUS
Related business
Manufacturer
SpaceX/Seattle
Mission
Operational Commercial Communications
Bus & Motor
STARLINK, Unknown motor
Mass
305 kg wet, ~290 kg dry
Launch date (UTC)
2023-02-02 (3 years ago)
Launch vehicle
FALCON 9
Launch site
Air Force Eastern Test Range (AFETR)
Object type
Payload
Rocket body
Debris
Shape & HBR
Box + 1 Pan, 10.1 m
Radar Cross Section
13.562 m², Large (>1 m²)

Expand to show TLE details & history
Last TLE update: 14 hours ago

TLE from 14 hours ago
0 STARLINK-5680
1 55455U 23015G   26132.54862455  .00000330  00000-0  21512-4 0  9999
2 55455  43.0052 328.4895 0002040 259.9343 100.1279 15.27578778180488
Epoch: 2026-05-12T13:10Z
TLE epoch observation values (Epoch: 2026-05-12T13:10:01.161Z)
Latitude
0.00003°
Longitude
-99.33673°
Altitude
483.075 km
Speed
7.626 km/s
True Right ascension
21h 53m 57s
True Declination
0° 00' 00"
Sunlit
Object was in daylight at epoch
Visualization orbit readout
Latitude
Unknown
Longitude
Unknown
Altitude
Unknown
Speed
Unknown
Apparent Right ascension
Unknown
Apparent Declination
Unknown
Sunlit
N/A
Visualization observer readout
Local Sidereal Time
11:18:08
Azimuth
Unknown
Elevation
Unknown
Doppler factor
Unknown
Orbital elements
Apogee altitude
486.397 km
Perigee altitude
483.597 km
Semi-major axis
6,863.134 km
Eccentricity
0.0002
Inclination
43.0052°
RAAN
328.4895°
Arg. of periapsis
259.9343°
True anomaly
100.15091°
Mean anomaly
100.1279°
Eccentric anomaly
100.13941°
Mean motion
3.81733 °/min
Orbital period
94.31 mins
BSTAR
0.000021512
Loading maneuver chart data...
Computing Atmospheric mass density...
Loading historical data...
Loading historical data...
Loading historical data...
Loading historical data...
Loading historical data...
Loading historical data...
Loading historical data...

Documentation

Showing up to 5 results
|